GSAT-9 (42695 NORAD) Tracking and Keplerian Element Data

This shows tracking and keplerian element data for the satellite.

Feedback or suggestion? Click here.




ElementValue
Catalog42695
NameGSAT-9
Epoch Orbit563
Epoch Day317.58335021
Epoch Year2018
RAAN276.3665
Inclination0.0816
Eccentricity0.0001527
Argument of Perigee316.325
Mean Anonmoly127.3224
Mean Motion1.00270238
Decay Rate-2.87E-06
L11 42695U 17024A 18317.58335021 -.00000287 00000-0 00000+0 0 9994
L22 42695 0.0816 276.3665 0001527 316.3250 127.3224 1.00270238 5631

Live tracking and technical data element details for GSAT-9 (NORAD 42695). GSAT-9 can be tracked NOW for your location showing map with azimuth and elevation plus other details from your city location.

Track the satellite on the map from your city or location and see movement details for azimuth, elevation, latitude, longitude, range, height, and movement on the map or in text.







IsCatalogInMostPopularTable: catalog: 42695, numindb: 117
Update: records affected: 1



GetName: 42695 GSAT-9

Hit Count: updated at: Wed, 14 Nov 2018 11:46:38 GMT